Overview Statistics Trail Chart Weather Telemetry Raw packets
 

This is the latest recevied weather packets stored in our database for station/object N3TJJ-2. If no packets are shown the sender has not sent any weather packets the latest 10 day(s).

<< 86 87 88 89 90 91 92 >>
Time Temp. Humidity Pressure Rain* Wind** Luminosity Snow
1787842486 25.56° C 75% 1017.1 hPa 0 mm - - -
1787842128 26.11° C 75% 1017 hPa 0 mm - - -
1787841791 25.56° C 74% 1017.1 hPa 0 mm - - -
1787841434 25° C 73% 1017.1 hPa 0 mm - - -
1787841053 24.44° C 73% 1017 hPa 0 mm - - -
1787840685 24.44° C 70% 1017.1 hPa 0 mm - - -
1787840332 24.44° C 70% 1017.2 hPa 0 mm - - -
1787839965 24.44° C 72% 1017.2 hPa 0 mm - - -
1787839616 24.44° C 72% 1017.1 hPa 0 mm - - -
1787839241 23.89° C 71% 1017.1 hPa 0 mm - - -
1787838881 23.89° C 67% 1017.1 hPa 0 mm - - -
1787838539 23.33° C 65% 1017.2 hPa 0 mm - - -
1787838185 22.78° C 65% 1017.1 hPa 0 mm - - -
1787837814 22.22° C 65% 1017.1 hPa 0 mm - - -
1787837441 22.22° C 66% 1017.2 hPa 0 mm - - -
1787837106 22.22° C 67% 1017.3 hPa 0 mm - - -
1787836759 22.22° C 66% 1017.3 hPa 0 mm - - -
1787836373 22.22° C 63% 1017.4 hPa 0 mm - - -
1787836016 21.67° C 62% 1017.4 hPa 0 mm - - -
1787835674 21.67° C 65% 1017.4 hPa 0 mm - - -
1787835283 22.22° C 67% 1017.5 hPa 0 mm - - -
1787834930 22.22° C 66% 1017.4 hPa 0 mm - - -
1787834593 22.22° C 64% 1017.4 hPa 0 mm - - -
1787834231 21.67° C 63% 1017.4 hPa 0 mm - - -
1787833845 21.67° C 61% 1017.5 hPa 0 mm - - -

* Rain latest hour (hover to see other rain measurements)
** Current wind speed in m/s (hover to see current wind gust speed)